Time,TemperatureF,DewpointF,PressureIn,WindDirection,WindDirectionDegrees,WindSpeedMPH,WindSpeedGustMPH,Humidity,HourlyPrecipIn,Conditions,Clouds,dailyrainin,SoftwareType,DateUTC
2013-09-17 00:00:00,64.8,63.0,30.12,WNW,289,0.0,0.0,94,0.00,,CLR,0.00,VWS V14.01,2013-09-17 04:00:00,
2013-09-17 00:01:00,64.8,63.0,30.12,WNW,289,0.0,0.0,94,0.00,,CLR,0.00,VWS V14.01,2013-09-17 04:01:00,
2013-09-17 00:06:00,64.7,62.9,30.12,WNW,289,0.0,0.0,94,0.00,,CLR,0.00,VWS V14.01,2013-09-17 04:06:00,
2013-09-17 00:11:00,64.6,62.8,30.12,WNW,289,0.0,0.0,94,0.00,,CLR,0.00,VWS V14.01,2013-09-17 04:11:00,
2013-09-17 00:16:00,64.5,62.7,30.12,WNW,289,0.0,0.0,94,0.00,,CLR,0.00,VWS V14.01,2013-09-17 04:16:00,
2013-09-17 00:21:00,64.5,62.7,30.12,WNW,289,0.0,0.0,94,0.00,,CLR,0.00,VWS V14.01,2013-09-17 04:21:00,
2013-09-17 00:26:00,64.4,62.6,30.13,WNW,289,0.0,0.0,94,0.00,,CLR,0.00,VWS V14.01,2013-09-17 04:26:00,
2013-09-17 00:30:00,64.4,62.6,30.13,WNW,289,0.0,0.0,94,0.00,,OVC110,0.00,VWS V14.01,2013-09-17 04:30:00,
2013-09-17 00:31:00,64.4,62.6,30.13,WNW,289,0.0,0.0,94,0.00,,CLR,0.00,VWS V14.01,2013-09-17 04:31:00,
2013-09-17 00:36:00,64.3,62.5,30.13,WNW,289,0.0,0.0,94,0.00,,CLR,0.00,VWS V14.01,2013-09-17 04:36:00,
2013-09-17 00:41:00,64.2,62.7,30.13,WNW,289,0.0,0.0,95,0.00,,CLR,0.00,VWS V14.01,2013-09-17 04:41:00,
2013-09-17 00:46:00,64.1,62.3,30.13,WNW,289,0.0,0.0,94,0.00,,CLR,0.00,VWS V14.01,2013-09-17 04:46:00,
2013-09-17 00:51:00,64.1,62.6,30.13,WNW,289,0.0,0.0,95,0.00,,CLR,0.00,VWS V14.01,2013-09-17 04:51:00,
2013-09-17 00:56:00,64.0,62.2,30.13,WNW,289,0.0,0.0,94,0.00,,CLR,0.00,VWS V14.01,2013-09-17 04:56:00,
2013-09-17 01:00:00,63.9,62.1,30.13,WNW,289,0.0,0.0,94,0.00,,OVC110,0.00,VWS V14.01,2013-09-17 05:00:00,
2013-09-17 01:01:00,63.9,62.4,30.13,WNW,289,0.0,0.0,95,0.00,,CLR,0.00,VWS V14.01,2013-09-17 05:01:00,
2013-09-17 01:06:00,63.9,62.4,30.13,WNW,289,0.0,0.0,95,0.00,,CLR,0.00,VWS V14.01,2013-09-17 05:06:00,
2013-09-17 01:11:00,63.9,62.4,30.13,WNW,289,0.0,0.0,95,0.00,,CLR,0.00,VWS V14.01,2013-09-17 05:11:00,
2013-09-17 01:16:00,63.8,62.3,30.13,WNW,289,0.0,0.0,95,0.00,,CLR,0.00,VWS V14.01,2013-09-17 05:16:00,
2013-09-17 01:21:00,63.7,62.2,30.13,WNW,289,0.0,0.0,95,0.00,,CLR,0.00,VWS V14.01,2013-09-17 05:21:00,
2013-09-17 01:26:00,63.7,62.2,30.13,WNW,289,0.0,0.0,95,0.00,,CLR,0.00,VWS V14.01,2013-09-17 05:26:00,
2013-09-17 01:30:00,63.7,62.2,30.13,WNW,289,0.0,0.0,95,0.00,,OVC110,0.00,VWS V14.01,2013-09-17 05:30:00,
2013-09-17 01:31:00,63.6,62.2,30.13,WNW,289,0.0,0.0,95,0.00,,CLR,0.00,VWS V14.01,2013-09-17 05:31:00,
2013-09-17 01:36:00,63.6,62.2,30.13,WNW,289,0.0,0.0,95,0.00,,CLR,0.00,VWS V14.01,2013-09-17 05:36:00,
2013-09-17 01:41:00,63.5,62.0,30.13,WNW,289,0.0,0.0,95,0.00,,CLR,0.00,VWS V14.01,2013-09-17 05:41:00,
2013-09-17 01:46:00,63.4,62.0,30.13,WNW,289,0.0,0.0,95,0.00,,CLR,0.00,VWS V14.01,2013-09-17 05:46:00,
2013-09-17 01:51:00,63.4,62.0,30.13,WNW,289,0.0,0.0,95,0.00,,CLR,0.00,VWS V14.01,2013-09-17 05:51:00,
2013-09-17 01:56:00,63.3,61.8,30.13,WNW,289,0.0,0.0,95,0.00,,CLR,0.00,VWS V14.01,2013-09-17 05:56:00,
2013-09-17 02:00:00,63.2,61.8,30.13,WNW,289,0.0,0.0,95,0.00,,OVC110,0.00,VWS V14.01,2013-09-17 06:00:00,
2013-09-17 02:01:00,63.2,62.0,30.13,WNW,289,0.0,0.0,96,0.00,,CLR,0.00,VWS V14.01,2013-09-17 06:01:00,
2013-09-17 02:06:00,63.2,62.0,30.13,WNW,289,0.0,0.0,96,0.00,,CLR,0.00,VWS V14.01,2013-09-17 06:06:00,
2013-09-17 02:11:00,63.1,61.9,30.13,WNW,289,0.0,0.0,96,0.00,,CLR,0.00,VWS V14.01,2013-09-17 06:11:00,
2013-09-17 02:16:00,63.1,61.9,30.13,WNW,289,0.0,0.0,96,0.00,,CLR,0.00,VWS V14.01,2013-09-17 06:16:00,
2013-09-17 02:21:00,63.1,61.9,30.14,WNW,289,0.0,0.0,96,0.00,,CLR,0.00,VWS V14.01,2013-09-17 06:21:00,
2013-09-17 02:26:00,63.0,61.8,30.14,WNW,289,0.0,0.0,96,0.00,,CLR,0.00,VWS V14.01,2013-09-17 06:26:00,
2013-09-17 02:30:00,63.0,61.8,30.14,WNW,289,0.0,0.0,96,0.00,,OVC110,0.00,VWS V14.01,2013-09-17 06:30:00,
2013-09-17 02:31:00,63.0,61.8,30.13,WNW,289,0.0,0.0,96,0.00,,CLR,0.00,VWS V14.01,2013-09-17 06:31:00,
2013-09-17 02:36:00,63.0,61.8,30.13,WNW,289,0.0,0.0,96,0.00,,CLR,0.00,VWS V14.01,2013-09-17 06:36:00,
2013-09-17 02:41:00,63.0,61.8,30.13,WNW,289,0.0,0.0,96,0.00,,CLR,0.00,VWS V14.01,2013-09-17 06:41:00,
2013-09-17 02:46:00,63.0,61.8,30.14,WNW,289,0.0,0.0,96,0.00,,CLR,0.00,VWS V14.01,2013-09-17 06:46:00,
2013-09-17 02:51:00,63.2,62.3,30.14,WNW,289,0.0,0.0,97,0.00,,CLR,0.00,VWS V14.01,2013-09-17 06:51:00,
2013-09-17 02:56:00,63.2,62.3,30.14,WNW,289,0.0,0.0,97,0.00,,CLR,0.00,VWS V14.01,2013-09-17 06:56:00,
2013-09-17 03:00:00,63.3,62.4,30.14,WNW,289,0.0,0.0,97,0.00,,OVC110,0.00,VWS V14.01,2013-09-17 07:00:00,
2013-09-17 03:01:00,63.3,62.4,30.14,WNW,289,0.0,0.0,97,0.00,,CLR,0.00,VWS V14.01,2013-09-17 07:01:00,
2013-09-17 03:06:00,63.4,62.5,30.14,WNW,289,0.0,0.0,97,0.00,,CLR,0.00,VWS V14.01,2013-09-17 07:06:00,
2013-09-17 03:11:00,63.6,62.7,30.14,WNW,289,0.0,0.0,97,0.00,,CLR,0.00,VWS V14.01,2013-09-17 07:11:00,
2013-09-17 03:16:00,63.7,62.8,30.14,WNW,289,0.0,0.0,97,0.00,,CLR,0.00,VWS V14.01,2013-09-17 07:16:00,
2013-09-17 03:21:00,63.8,62.9,30.14,WNW,289,0.0,0.0,97,0.00,,CLR,0.00,VWS V14.01,2013-09-17 07:21:00,
2013-09-17 03:26:00,63.9,63.0,30.14,WNW,289,0.0,0.0,97,0.00,,CLR,0.00,VWS V14.01,2013-09-17 07:26:00,
2013-09-17 03:30:00,64.0,63.1,30.14,WNW,289,0.0,0.0,97,0.00,,OVC110,0.00,VWS V14.01,2013-09-17 07:30:00,
2013-09-17 03:31:00,64.1,63.2,30.14,WNW,289,0.0,0.0,97,0.00,,CLR,0.00,VWS V14.01,2013-09-17 07:31:00,
2013-09-17 03:36:00,64.1,63.2,30.14,WNW,289,0.0,0.0,97,0.00,,CLR,0.00,VWS V14.01,2013-09-17 07:36:00,
2013-09-17 03:41:00,64.3,63.1,30.14,WNW,289,0.0,0.0,96,0.00,,CLR,0.00,VWS V14.01,2013-09-17 07:41:00,
2013-09-17 03:46:00,64.4,63.2,30.14,WNW,289,0.0,0.0,96,0.00,,CLR,0.00,VWS V14.01,2013-09-17 07:46:00,
2013-09-17 03:51:00,64.5,63.3,30.14,WNW,289,0.0,0.0,96,0.00,,CLR,0.00,VWS V14.01,2013-09-17 07:51:00,
2013-09-17 03:56:00,64.7,63.5,30.13,WNW,289,0.0,0.0,96,0.00,,CLR,0.00,VWS V14.01,2013-09-17 07:56:00,
2013-09-17 04:00:00,64.9,63.7,30.13,WNW,289,0.0,0.0,96,0.00,,OVC110,0.00,VWS V14.01,2013-09-17 08:00:00,
2013-09-17 04:01:00,64.9,63.7,30.14,WNW,289,0.0,0.0,96,0.00,,CLR,0.00,VWS V14.01,2013-09-17 08:01:00,
2013-09-17 04:06:00,65.0,63.8,30.14,WNW,289,0.0,0.0,96,0.00,,CLR,0.00,VWS V14.01,2013-09-17 08:06:00,
2013-09-17 04:11:00,65.0,63.8,30.14,WNW,289,0.0,0.0,96,0.00,,CLR,0.00,VWS V14.01,2013-09-17 08:11:00,
2013-09-17 04:16:00,65.0,63.8,30.14,WNW,289,0.0,0.0,96,0.00,,CLR,0.00,VWS V14.01,2013-09-17 08:16:00,
2013-09-17 04:20:00,65.1,63.9,30.14,WNW,289,0.0,0.0,96,0.00,,CLR,0.00,VWS V14.01,2013-09-17 08:20:00,
2013-09-17 04:25:00,65.1,63.6,30.14,WNW,289,0.0,0.0,95,0.00,,CLR,0.00,VWS V14.01,2013-09-17 08:25:00,
2013-09-17 04:30:00,65.0,63.5,30.14,WNW,289,0.0,0.0,95,0.00,,CLR,0.00,VWS V14.01,2013-09-17 08:30:00,
2013-09-17 04:35:00,64.9,63.4,30.14,WNW,289,0.0,0.0,95,0.00,,CLR,0.00,VWS V14.01,2013-09-17 08:35:00,
2013-09-17 04:40:00,64.8,63.3,30.14,WNW,289,0.0,0.0,95,0.00,,CLR,0.00,VWS V14.01,2013-09-17 08:40:00,
2013-09-17 04:45:00,64.8,63.3,30.14,WNW,289,0.0,0.0,95,0.00,,CLR,0.00,VWS V14.01,2013-09-17 08:45:00,
2013-09-17 04:50:00,64.7,63.2,30.14,WNW,289,0.0,0.0,95,0.00,,CLR,0.00,VWS V14.01,2013-09-17 08:50:00,
2013-09-17 04:55:00,64.7,63.2,30.14,WNW,289,0.0,0.0,95,0.00,,CLR,0.00,VWS V14.01,2013-09-17 08:55:00,
2013-09-17 05:00:00,64.7,63.2,30.14,WNW,289,0.0,0.0,95,0.00,,CLR,0.00,VWS V14.01,2013-09-17 09:00:00,
2013-09-17 05:05:00,64.7,63.5,30.14,WNW,289,0.0,0.0,96,0.00,,CLR,0.00,VWS V14.01,2013-09-17 09:05:00,
2013-09-17 05:10:00,64.7,63.2,30.15,WNW,289,0.0,0.0,95,0.00,,CLR,0.00,VWS V14.01,2013-09-17 09:10:00,
2013-09-17 05:15:00,64.8,63.3,30.15,WNW,289,0.0,0.0,95,0.00,,CLR,0.00,VWS V14.01,2013-09-17 09:15:00,
2013-09-17 05:20:00,64.9,63.4,30.15,WNW,289,0.0,0.0,95,0.00,,CLR,0.00,VWS V14.01,2013-09-17 09:20:00,
2013-09-17 05:25:00,64.9,63.4,30.15,WNW,289,0.0,0.0,95,0.00,,CLR,0.00,VWS V14.01,2013-09-17 09:25:00,
2013-09-17 05:30:00,64.9,63.4,30.15,WNW,289,0.0,0.0,95,0.00,,CLR,0.00,VWS V14.01,2013-09-17 09:30:00,
2013-09-17 05:35:00,65.0,63.5,30.15,NW,307,0.0,1.0,95,0.00,,CLR,0.00,VWS V14.01,2013-09-17 09:35:00,
2013-09-17 05:40:00,65.1,63.3,30.15,NW,307,0.0,1.0,94,0.00,,CLR,0.00,VWS V14.01,2013-09-17 09:40:00,
2013-09-17 05:45:00,65.2,63.4,30.15,NW,306,0.0,1.0,94,0.00,,CLR,0.00,VWS V14.01,2013-09-17 09:45:00,
2013-09-17 05:50:00,65.3,63.5,30.15,NW,306,0.0,1.0,94,0.00,,CLR,0.00,VWS V14.01,2013-09-17 09:50:00,
2013-09-17 05:55:00,65.3,63.5,30.15,NW,306,0.0,1.0,94,0.00,,CLR,0.00,VWS V14.01,2013-09-17 09:55:00,
2013-09-17 06:00:00,65.4,63.3,30.15,NW,306,0.0,1.0,93,0.00,,CLR,0.00,VWS V14.01,2013-09-17 10:00:00,
2013-09-17 06:05:00,65.6,63.5,30.15,NE,55,1.0,2.0,93,0.00,,CLR,0.00,VWS V14.01,2013-09-17 10:05:00,
2013-09-17 06:10:00,65.8,63.7,30.15,NE,55,0.0,2.0,93,0.00,,CLR,0.00,VWS V14.01,2013-09-17 10:10:00,
2013-09-17 06:15:00,66.0,63.3,30.15,NNE,18,0.0,4.0,91,0.00,,CLR,0.00,VWS V14.01,2013-09-17 10:15:00,
2013-09-17 06:20:00,66.2,63.5,30.16,ESE,109,0.0,4.0,91,0.00,,CLR,0.00,VWS V14.01,2013-09-17 10:20:00,
2013-09-17 06:25:00,66.3,63.6,30.16,SSW,201,0.0,4.0,91,0.00,,CLR,0.00,VWS V14.01,2013-09-17 10:25:00,
2013-09-17 06:30:00,66.4,63.7,30.16,NNE,32,2.0,2.0,91,0.00,,CLR,0.00,VWS V14.01,2013-09-17 10:30:00,
2013-09-17 06:35:00,66.6,63.6,30.16,SW,221,0.0,2.0,90,0.00,,CLR,0.00,VWS V14.01,2013-09-17 10:35:00,
2013-09-17 06:40:00,66.8,63.5,30.16,West,276,0.0,4.0,89,0.00,,CLR,0.00,VWS V14.01,2013-09-17 10:40:00,
2013-09-17 06:45:00,67.1,63.4,30.17,South,181,2.0,4.0,88,0.00,,CLR,0.00,VWS V14.01,2013-09-17 10:45:00,
2013-09-17 06:50:00,67.3,63.6,30.17,SE,146,0.0,4.0,88,0.00,,CLR,0.00,VWS V14.01,2013-09-17 10:50:00,
2013-09-17 06:55:00,67.5,63.8,30.17,ENE,59,0.0,7.0,88,0.00,,CLR,0.00,VWS V14.01,2013-09-17 10:55:00,
2013-09-17 07:00:00,67.5,63.5,30.17,SW,225,0.0,2.0,87,0.00,,CLR,0.00,VWS V14.01,2013-09-17 11:00:00,
2013-09-17 07:05:00,67.6,63.3,30.17,North,5,0.0,4.0,86,0.00,,CLR,0.00,VWS V14.01,2013-09-17 11:05:00,
2013-09-17 07:10:00,67.6,63.3,30.17,ESE,119,0.0,4.0,86,0.00,,CLR,0.00,VWS V14.01,2013-09-17 11:10:00,
2013-09-17 07:15:00,67.7,63.4,30.17,SW,233,0.0,4.0,86,0.00,,CLR,0.00,VWS V14.01,2013-09-17 11:15:00,
2013-09-17 07:20:00,67.8,63.5,30.18,SW,214,0.0,4.0,86,0.00,,CLR,0.00,VWS V14.01,2013-09-17 11:20:00,
2013-09-17 07:25:00,67.9,63.6,30.18,South,187,2.0,4.0,86,0.00,,CLR,0.00,VWS V14.01,2013-09-17 11:25:00,
2013-09-17 07:30:00,67.9,63.6,30.18,WNW,285,1.0,6.0,86,0.00,,CLR,0.00,VWS V14.01,2013-09-17 11:30:00,
2013-09-17 07:35:00,67.9,63.6,30.19,South,176,1.0,6.0,86,0.00,,CLR,0.00,VWS V14.01,2013-09-17 11:35:00,
2013-09-17 07:40:00,68.0,63.3,30.19,NNE,33,0.0,6.0,85,0.00,,CLR,0.00,VWS V14.01,2013-09-17 11:40:00,
2013-09-17 07:45:00,67.9,63.2,30.19,SW,230,0.0,6.0,85,0.00,,CLR,0.00,VWS V14.01,2013-09-17 11:45:00,
2013-09-17 07:50:00,67.9,63.6,30.19,ENE,64,0.0,6.0,86,0.00,,CLR,0.00,VWS V14.01,2013-09-17 11:50:00,
2013-09-17 07:55:00,67.9,63.2,30.19,ESE,107,0.0,6.0,85,0.00,,CLR,0.00,VWS V14.01,2013-09-17 11:55:00,
2013-09-17 08:00:00,67.9,63.6,30.20,ENE,59,0.0,4.0,86,0.00,,CLR,0.00,VWS V14.01,2013-09-17 12:00:00,
2013-09-17 08:05:00,67.9,63.2,30.20,NNW,340,0.0,4.0,85,0.00,,CLR,0.00,VWS V14.01,2013-09-17 12:05:00,
2013-09-17 08:10:00,68.0,63.0,30.20,SW,228,6.0,6.0,84,0.00,,CLR,0.00,VWS V14.01,2013-09-17 12:10:00,
2013-09-17 08:15:00,68.1,63.1,30.20,ESE,107,0.0,6.0,84,0.00,,CLR,0.00,VWS V14.01,2013-09-17 12:15:00,
2013-09-17 08:20:00,68.2,63.5,30.20,SSW,213,4.0,6.0,85,0.00,,CLR,0.00,VWS V14.01,2013-09-17 12:20:00,
2013-09-17 08:25:00,68.3,63.3,30.20,East,92,0.0,6.0,84,0.00,,CLR,0.00,VWS V14.01,2013-09-17 12:25:00,
2013-09-17 08:30:00,68.4,63.0,30.21,ENE,66,0.0,1.0,83,0.00,,CLR,0.00,VWS V14.01,2013-09-17 12:30:00,
2013-09-17 08:35:00,68.5,63.1,30.21,South,177,1.0,8.0,83,0.00,,CLR,0.00,VWS V14.01,2013-09-17 12:35:00,
2013-09-17 08:40:00,68.7,63.0,30.21,SW,227,0.0,8.0,82,0.00,,CLR,0.00,VWS V14.01,2013-09-17 12:40:00,
2013-09-17 08:45:00,68.8,63.1,30.21,North,355,3.0,8.0,82,0.00,,CLR,0.00,VWS V14.01,2013-09-17 12:45:00,
2013-09-17 08:50:00,69.0,63.3,30.21,SSE,165,0.0,8.0,82,0.00,,CLR,0.00,VWS V14.01,2013-09-17 12:50:00,
2013-09-17 08:55:00,69.1,63.0,30.22,North,360,8.0,8.0,81,0.00,,CLR,0.00,VWS V14.01,2013-09-17 12:55:00,
2013-09-17 09:00:00,69.2,62.8,30.22,East,97,2.0,6.0,80,0.00,,CLR,0.00,VWS V14.01,2013-09-17 13:00:00,
2013-09-17 09:05:00,69.5,63.1,30.22,ESE,113,1.0,7.0,80,0.00,,CLR,0.00,VWS V14.01,2013-09-17 13:05:00,
2013-09-17 09:10:00,69.8,63.4,30.22,WNW,295,1.0,7.0,80,0.00,,CLR,0.00,VWS V14.01,2013-09-17 13:10:00,
2013-09-17 09:15:00,70.1,63.3,30.22,SW,215,3.0,7.0,79,0.00,,CLR,0.00,VWS V14.01,2013-09-17 13:15:00,
2013-09-17 09:20:00,70.4,63.2,30.22,WNW,291,0.0,7.0,78,0.00,,CLR,0.00,VWS V14.01,2013-09-17 13:20:00,
2013-09-17 09:25:00,70.4,63.6,30.22,SSE,155,2.0,7.0,79,0.00,,CLR,0.00,VWS V14.01,2013-09-17 13:25:00,
2013-09-17 09:30:00,70.2,63.0,30.23,SW,221,2.0,2.0,78,0.00,,CLR,0.00,VWS V14.01,2013-09-17 13:30:00,
2013-09-17 09:35:00,70.1,63.7,30.23,South,191,1.0,3.0,80,0.00,,CLR,0.00,VWS V14.01,2013-09-17 13:35:00,
2013-09-17 09:40:00,70.1,62.9,30.23,East,96,1.0,9.0,78,0.00,,CLR,0.00,VWS V14.01,2013-09-17 13:40:00,
2013-09-17 09:45:00,70.0,62.8,30.23,NNE,26,1.0,9.0,78,0.00,,CLR,0.00,VWS V14.01,2013-09-17 13:45:00,
2013-09-17 09:50:00,69.9,63.1,30.24,North,360,3.0,9.0,79,0.00,,CLR,0.00,VWS V14.01,2013-09-17 13:50:00,
2013-09-17 09:55:00,70.0,63.2,30.24,SW,223,4.0,9.0,79,0.00,,CLR,0.00,VWS V14.01,2013-09-17 13:55:00,
2013-09-17 10:00:00,70.1,62.9,30.24,East,82,0.0,6.0,78,0.00,,CLR,0.00,VWS V14.01,2013-09-17 14:00:00,
2013-09-17 10:05:00,70.2,63.4,30.24,South,180,2.0,6.0,79,0.00,,CLR,0.00,VWS V14.01,2013-09-17 14:05:00,
2013-09-17 10:10:00,70.3,63.5,30.24,WSW,258,0.0,7.0,79,0.00,,CLR,0.00,VWS V14.01,2013-09-17 14:10:00,
2013-09-17 10:15:00,70.3,63.5,30.24,WSW,240,1.0,7.0,79,0.00,,CLR,0.00,VWS V14.01,2013-09-17 14:15:00,
2013-09-17 10:20:00,70.0,62.8,30.25,South,173,1.0,8.0,78,0.00,,CLR,0.00,VWS V14.01,2013-09-17 14:20:00,
2013-09-17 10:25:00,69.9,63.1,30.25,North,9,0.0,8.0,79,0.00,,CLR,0.00,VWS V14.01,2013-09-17 14:25:00,
2013-09-17 10:30:00,70.2,63.8,30.25,SW,232,0.0,0.0,80,0.00,,CLR,0.00,VWS V14.01,2013-09-17 14:30:00,
2013-09-17 10:35:00,70.3,63.5,30.25,SW,236,5.0,9.0,79,0.00,,BKN055,0.00,VWS V14.01,2013-09-17 14:35:00,
2013-09-17 10:40:00,70.2,63.0,30.25,SW,234,2.0,9.0,78,0.00,,BKN055,0.00,VWS V14.01,2013-09-17 14:40:00,
2013-09-17 10:45:00,70.3,63.1,30.25,ENE,78,2.0,9.0,78,0.00,,BKN055,0.00,VWS V14.01,2013-09-17 14:45:00,
2013-09-17 10:50:00,70.6,63.0,30.26,East,90,1.0,9.0,77,0.00,,BKN055,0.00,VWS V14.01,2013-09-17 14:50:00,
2013-09-17 10:55:00,70.7,63.1,30.25,West,262,2.0,9.0,77,0.00,,BKN055,0.00,VWS V14.01,2013-09-17 14:55:00,
2013-09-17 11:00:00,70.8,63.2,30.25,SSW,197,2.0,5.0,77,0.00,,BKN055,0.00,VWS V14.01,2013-09-17 15:00:00,
2013-09-17 11:05:00,71.0,63.4,30.26,SW,225,4.0,5.0,77,0.00,,BKN055,0.00,VWS V14.01,2013-09-17 15:05:00,
2013-09-17 11:10:00,71.2,63.6,30.25,SSE,152,0.0,5.0,77,0.00,,BKN055,0.00,VWS V14.01,2013-09-17 15:10:00,
2013-09-17 11:15:00,71.5,63.5,30.26,SSE,149,1.0,6.0,76,0.00,,BKN055,0.00,VWS V14.01,2013-09-17 15:15:00,
2013-09-17 11:20:00,71.4,63.1,30.26,SE,136,1.0,7.0,75,0.00,,BKN055,0.00,VWS V14.01,2013-09-17 15:20:00,
2013-09-17 11:25:00,71.3,63.3,30.26,SSW,204,2.0,7.0,76,0.00,,BKN055,0.00,VWS V14.01,2013-09-17 15:25:00,
2013-09-17 11:30:00,71.4,63.1,30.25,North,355,0.0,3.0,75,0.00,,BKN055,0.00,VWS V14.01,2013-09-17 15:30:00,
2013-09-17 11:35:00,71.6,63.3,30.26,SE,130,1.0,12.0,75,0.00,,BKN055,0.00,VWS V14.01,2013-09-17 15:35:00,
2013-09-17 11:40:00,71.7,63.4,30.26,NNE,15,0.0,12.0,75,0.00,,BKN055,0.00,VWS V14.01,2013-09-17 15:40:00,
2013-09-17 11:45:00,71.7,63.4,30.25,SE,124,0.0,12.0,75,0.00,,BKN055,0.00,VWS V14.01,2013-09-17 15:45:00,
2013-09-17 11:50:00,72.0,63.7,30.25,SSE,161,0.0,12.0,75,0.00,,BKN055,0.00,VWS V14.01,2013-09-17 15:50:00,
2013-09-17 11:55:00,72.3,63.9,30.25,ESE,106,3.0,12.0,75,0.00,,BKN055,0.00,VWS V14.01,2013-09-17 15:55:00,
2013-09-17 12:00:00,72.2,63.5,30.26,SW,230,1.0,4.0,74,0.00,,BKN055,0.00,VWS V14.01,2013-09-17 16:00:00,
2013-09-17 12:05:00,72.0,64.0,30.26,WSW,245,0.0,4.0,76,0.00,,BKN055,0.00,VWS V14.01,2013-09-17 16:05:00,
2013-09-17 12:10:00,72.0,64.0,30.26,SW,215,0.0,4.0,76,0.00,,BKN055,0.00,VWS V14.01,2013-09-17 16:10:00,
2013-09-17 12:15:00,72.0,63.7,30.25,SW,221,0.0,8.0,75,0.00,,BKN055,0.00,VWS V14.01,2013-09-17 16:15:00,
2013-09-17 12:20:00,72.4,63.7,30.25,NE,49,0.0,8.0,74,0.00,,BKN055,0.00,VWS V14.01,2013-09-17 16:20:00,
2013-09-17 12:25:00,72.7,63.9,30.25,SSW,207,0.0,8.0,74,0.00,,BKN055,0.00,VWS V14.01,2013-09-17 16:25:00,
2013-09-17 12:30:00,73.1,63.9,30.25,WSW,252,2.0,7.0,73,0.00,,BKN055,0.00,VWS V14.01,2013-09-17 16:30:00,
2013-09-17 12:35:00,73.1,63.9,30.25,NE,38,2.0,7.0,73,0.00,,OVC032,0.00,VWS V14.01,2013-09-17 16:35:00,
2013-09-17 12:40:00,73.4,64.6,30.25,South,190,1.0,7.0,74,0.00,,OVC032,0.00,VWS V14.01,2013-09-17 16:40:00,
2013-09-17 12:45:00,73.6,64.4,30.25,West,265,0.0,7.0,73,0.00,,OVC032,0.00,VWS V14.01,2013-09-17 16:45:00,
2013-09-17 12:50:00,73.9,63.9,30.25,SSE,154,1.0,7.0,71,0.00,,OVC032,0.00,VWS V14.01,2013-09-17 16:50:00,
2013-09-17 12:55:00,74.1,63.7,30.25,East,101,0.0,7.0,70,0.00,,OVC032,0.00,VWS V14.01,2013-09-17 16:55:00,
2013-09-17 13:00:00,73.8,63.4,30.24,NNE,20,4.0,4.0,70,0.00,,OVC032,0.00,VWS V14.01,2013-09-17 17:00:00,
2013-09-17 13:05:00,73.8,63.8,30.24,SW,216,3.0,10.0,71,0.00,,OVC032,0.00,VWS V14.01,2013-09-17 17:05:00,
2013-09-17 13:10:00,73.6,63.6,30.24,SSW,202,0.0,10.0,71,0.00,,OVC032,0.00,VWS V14.01,2013-09-17 17:10:00,
2013-09-17 13:15:00,73.7,63.3,30.24,South,187,1.0,10.0,70,0.00,,OVC032,0.00,VWS V14.01,2013-09-17 17:15:00,
2013-09-17 13:20:00,74.1,64.1,30.24,SW,230,0.0,10.0,71,0.00,,OVC032,0.00,VWS V14.01,2013-09-17 17:20:00,
2013-09-17 13:25:00,74.4,63.6,30.23,WSW,240,0.0,10.0,69,0.00,,OVC032,0.00,VWS V14.01,2013-09-17 17:25:00,
2013-09-17 13:30:00,74.9,63.6,30.23,SSW,211,0.0,1.0,68,0.00,,OVC032,0.00,VWS V14.01,2013-09-17 17:30:00,
2013-09-17 13:35:00,75.6,63.5,30.23,West,275,0.0,6.0,66,0.00,,BKN095,0.00,VWS V14.01,2013-09-17 17:35:00,
2013-09-17 13:40:00,75.9,62.9,30.23,ENE,75,1.0,6.0,64,0.00,,BKN095,0.00,VWS V14.01,2013-09-17 17:40:00,
2013-09-17 13:45:00,76.4,63.3,30.23,SSW,213,6.0,7.0,64,0.00,,BKN095,0.00,VWS V14.01,2013-09-17 17:45:00,
2013-09-17 13:50:00,76.5,63.4,30.23,SSW,213,0.0,7.0,64,0.00,,BKN095,0.00,VWS V14.01,2013-09-17 17:50:00,
2013-09-17 13:55:00,77.3,62.8,30.23,SSW,194,2.0,9.0,61,0.00,,BKN095,0.00,VWS V14.01,2013-09-17 17:55:00,
2013-09-17 14:00:00,77.2,62.2,30.23,NNE,29,6.0,7.0,60,0.00,,BKN095,0.00,VWS V14.01,2013-09-17 18:00:00,
2013-09-17 14:05:00,76.9,62.0,30.22,ENE,59,1.0,10.0,60,0.00,,BKN095,0.00,VWS V14.01,2013-09-17 18:05:00,
2013-09-17 14:10:00,76.9,62.0,30.22,SW,235,2.0,10.0,60,0.00,,BKN095,0.00,VWS V14.01,2013-09-17 18:10:00,
2013-09-17 14:15:00,77.1,63.1,30.22,SW,228,1.0,10.0,62,0.00,,BKN095,0.00,VWS V14.01,2013-09-17 18:15:00,
2013-09-17 14:20:00,77.5,62.5,30.22,North,360,1.0,10.0,60,0.00,,BKN095,0.00,VWS V14.01,2013-09-17 18:20:00,
2013-09-17 14:25:00,77.3,62.3,30.22,NNW,336,4.0,10.0,60,0.00,,BKN095,0.00,VWS V14.01,2013-09-17 18:25:00,
2013-09-17 14:30:00,77.1,63.1,30.21,NNE,30,0.0,5.0,62,0.00,,BKN095,0.00,VWS V14.01,2013-09-17 18:30:00,
2013-09-17 14:35:00,76.9,62.0,30.21,SSE,147,1.0,5.0,60,0.00,,OVC030,0.00,VWS V14.01,2013-09-17 18:35:00,
2013-09-17 14:40:00,76.5,62.1,30.21,ENE,74,0.0,7.0,61,0.00,,OVC030,0.00,VWS V14.01,2013-09-17 18:40:00,
2013-09-17 14:45:00,76.4,62.9,30.21,NE,53,0.0,7.0,63,0.00,,OVC030,0.00,VWS V14.01,2013-09-17 18:45:00,
2013-09-17 14:50:00,76.8,62.3,30.21,NNE,32,5.0,7.0,61,0.00,,OVC030,0.00,VWS V14.01,2013-09-17 18:50:00,
2013-09-17 14:55:00,77.4,62.4,30.21,NE,36,4.0,7.0,60,0.00,,OVC030,0.00,VWS V14.01,2013-09-17 18:55:00,
2013-09-17 15:00:00,77.0,62.5,30.20,ENE,72,3.0,3.0,61,0.00,,OVC030,0.00,VWS V14.01,2013-09-17 19:00:00,
2013-09-17 15:05:00,77.2,63.2,30.20,SW,221,1.0,7.0,62,0.00,,OVC030,0.00,VWS V14.01,2013-09-17 19:05:00,
2013-09-17 15:10:00,77.3,62.3,30.20,SSW,195,0.0,7.0,60,0.00,,OVC030,0.00,VWS V14.01,2013-09-17 19:10:00,
2013-09-17 15:15:00,76.9,62.4,30.20,ESE,110,0.0,8.0,61,0.00,,OVC030,0.00,VWS V14.01,2013-09-17 19:15:00,
2013-09-17 15:20:00,77.1,63.5,30.20,WSW,243,0.0,8.0,63,0.00,,OVC030,0.00,VWS V14.01,2013-09-17 19:20:00,
2013-09-17 15:25:00,78.0,63.5,30.19,West,271,1.0,8.0,61,0.00,,OVC030,0.00,VWS V14.01,2013-09-17 19:25:00,
2013-09-17 15:30:00,78.7,63.2,30.19,WSW,254,0.0,4.0,59,0.00,,OVC030,0.00,VWS V14.01,2013-09-17 19:30:00,
2013-09-17 15:35:00,79.2,62.7,30.19,North,5,1.0,10.0,57,0.00,,SCT095,0.00,VWS V14.01,2013-09-17 19:35:00,
2013-09-17 15:40:00,79.1,63.1,30.19,ESE,110,1.0,10.0,58,0.00,,SCT095,0.00,VWS V14.01,2013-09-17 19:40:00,
2013-09-17 15:45:00,79.0,63.5,30.19,SSW,192,0.0,10.0,59,0.00,,SCT095,0.00,VWS V14.01,2013-09-17 19:45:00,
2013-09-17 15:50:00,78.6,63.6,30.18,ESE,109,1.0,10.0,60,0.00,,SCT095,0.00,VWS V14.01,2013-09-17 19:50:00,
2013-09-17 15:55:00,78.7,63.2,30.18,SSW,213,0.0,10.0,59,0.00,,SCT095,0.00,VWS V14.01,2013-09-17 19:55:00,
2013-09-17 16:00:00,78.9,63.8,30.18,ESE,113,0.0,9.0,60,0.00,,SCT095,0.00,VWS V14.01,2013-09-17 20:00:00,
2013-09-17 16:05:00,78.4,63.8,30.18,SW,219,0.0,9.0,61,0.00,,SCT095,0.00,VWS V14.01,2013-09-17 20:05:00,
2013-09-17 16:10:00,78.5,64.0,30.18,WSW,242,2.0,9.0,61,0.00,,SCT095,0.00,VWS V14.01,2013-09-17 20:10:00,
2013-09-17 16:15:00,79.0,63.5,30.18,NE,42,2.0,9.0,59,0.00,,SCT095,0.00,VWS V14.01,2013-09-17 20:15:00,
2013-09-17 16:20:00,79.2,64.1,30.18,SSW,195,2.0,9.0,60,0.00,,SCT095,0.00,VWS V14.01,2013-09-17 20:20:00,
2013-09-17 16:25:00,79.1,64.5,30.18,SW,227,1.0,9.0,61,0.00,,SCT095,0.00,VWS V14.01,2013-09-17 20:25:00,
2013-09-17 16:30:00,78.5,63.0,30.18,SE,131,1.0,10.0,59,0.00,,SCT095,0.00,VWS V14.01,2013-09-17 20:30:00,
2013-09-17 16:35:00,78.4,64.3,30.18,SW,233,1.0,10.0,62,0.00,,SCT095,0.00,VWS V14.01,2013-09-17 20:35:00,
2013-09-17 16:40:00,78.2,63.2,30.18,SSW,192,1.0,10.0,60,0.00,,SCT095,0.00,VWS V14.01,2013-09-17 20:40:00,
2013-09-17 16:45:00,78.4,63.8,30.17,West,273,2.0,10.0,61,0.00,,SCT095,0.00,VWS V14.01,2013-09-17 20:45:00,
2013-09-17 16:50:00,78.7,63.7,30.18,NNE,27,1.0,10.0,60,0.00,,SCT095,0.00,VWS V14.01,2013-09-17 20:50:00,
2013-09-17 16:55:00,78.8,64.2,30.17,North,5,1.0,10.0,61,0.00,,SCT095,0.00,VWS V14.01,2013-09-17 20:55:00,
2013-09-17 17:00:00,79.1,64.5,30.18,WNW,288,0.0,1.0,61,0.00,,SCT095,0.00,VWS V14.01,2013-09-17 21:00:00,
2013-09-17 17:05:00,78.9,63.4,30.18,SW,225,3.0,5.0,59,0.00,,SCT095,0.00,VWS V14.01,2013-09-17 21:05:00,
2013-09-17 17:10:00,78.8,64.2,30.17,West,263,0.0,5.0,61,0.00,,SCT095,0.00,VWS V14.01,2013-09-17 21:10:00,
2013-09-17 17:15:00,78.7,63.7,30.18,SW,220,3.0,5.0,60,0.00,,SCT095,0.00,VWS V14.01,2013-09-17 21:15:00,
2013-09-17 17:20:00,78.4,63.4,30.18,WSW,237,2.0,5.0,60,0.00,,SCT095,0.00,VWS V14.01,2013-09-17 21:20:00,
2013-09-17 17:25:00,78.4,63.8,30.18,South,188,0.0,5.0,61,0.00,,SCT095,0.00,VWS V14.01,2013-09-17 21:25:00,
2013-09-17 17:30:00,78.2,63.2,30.18,SSW,211,1.0,3.0,60,0.00,,SCT095,0.00,VWS V14.01,2013-09-17 21:30:00,
2013-09-17 17:35:00,77.6,63.6,30.18,SW,222,5.0,5.0,62,0.00,,SCT095,0.00,VWS V14.01,2013-09-17 21:35:00,
2013-09-17 17:40:00,77.2,63.6,30.18,SW,231,0.0,5.0,63,0.00,,BKN036,0.00,VWS V14.01,2013-09-17 21:40:00,
2013-09-17 17:45:00,76.3,63.2,30.18,South,186,0.0,5.0,64,0.00,,BKN036,0.00,VWS V14.01,2013-09-17 21:45:00,
2013-09-17 17:50:00,75.8,63.2,30.18,SSW,198,0.0,5.0,65,0.00,,BKN036,0.00,VWS V14.01,2013-09-17 21:50:00,
2013-09-17 17:55:00,75.5,63.4,30.18,ENE,59,0.0,11.0,66,0.00,,BKN036,0.00,VWS V14.01,2013-09-17 21:55:00,
2013-09-17 18:00:00,75.1,63.0,30.18,SW,231,3.0,3.0,66,0.00,,BKN036,0.00,VWS V14.01,2013-09-17 22:00:00,
2013-09-17 18:05:00,74.9,62.8,30.18,North,5,0.0,4.0,66,0.00,,BKN036,0.00,VWS V14.01,2013-09-17 22:05:00,
2013-09-17 18:10:00,74.7,62.6,30.18,SW,215,0.0,4.0,66,0.00,,BKN036,0.00,VWS V14.01,2013-09-17 22:10:00,
2013-09-17 18:15:00,74.6,62.9,30.18,SSE,155,0.0,4.0,67,0.00,,BKN036,0.00,VWS V14.01,2013-09-17 22:15:00,
2013-09-17 18:20:00,74.2,63.0,30.18,ENE,69,3.0,6.0,68,0.00,,BKN036,0.00,VWS V14.01,2013-09-17 22:20:00,
2013-09-17 18:25:00,73.8,62.6,30.18,NNW,330,0.0,6.0,68,0.00,,BKN036,0.00,VWS V14.01,2013-09-17 22:25:00,
2013-09-17 18:30:00,73.6,62.4,30.18,SE,136,1.0,1.0,68,0.00,,BKN036,0.00,VWS V14.01,2013-09-17 22:30:00,
2013-09-17 18:35:00,73.3,62.5,30.18,North,349,2.0,3.0,69,0.00,,OVC038,0.00,VWS V14.01,2013-09-17 22:35:00,
2013-09-17 18:40:00,73.0,62.7,30.18,North,9,4.0,4.0,70,0.00,,OVC038,0.00,VWS V14.01,2013-09-17 22:40:00,
2013-09-17 18:45:00,72.8,62.5,30.18,ENE,59,0.0,4.0,70,0.00,,OVC038,0.00,VWS V14.01,2013-09-17 22:45:00,
2013-09-17 18:50:00,72.6,62.3,30.18,SSE,160,0.0,4.0,70,0.00,,OVC038,0.00,VWS V14.01,2013-09-17 22:50:00,
2013-09-17 18:55:00,72.4,62.1,30.18,ENE,59,0.0,4.0,70,0.00,,OVC038,0.00,VWS V14.01,2013-09-17 22:55:00,
2013-09-17 19:00:00,72.2,62.3,30.19,SSW,202,0.0,0.0,71,0.00,,OVC038,0.00,VWS V14.01,2013-09-17 23:00:00,
2013-09-17 19:05:00,72.2,62.3,30.19,SE,128,0.0,1.0,71,0.00,,OVC038,0.00,VWS V14.01,2013-09-17 23:05:00,
2013-09-17 19:10:00,72.1,62.2,30.19,SW,223,0.0,4.0,71,0.00,,OVC038,0.00,VWS V14.01,2013-09-17 23:10:00,
2013-09-17 19:15:00,71.8,62.3,30.19,SW,225,1.0,4.0,72,0.00,,OVC038,0.00,VWS V14.01,2013-09-17 23:15:00,
2013-09-17 19:20:00,71.7,61.8,30.19,SW,215,3.0,4.0,71,0.00,,OVC038,0.00,VWS V14.01,2013-09-17 23:20:00,
2013-09-17 19:25:00,71.6,61.7,30.19,WNW,285,1.0,4.0,71,0.00,,OVC038,0.00,VWS V14.01,2013-09-17 23:25:00,
2013-09-17 19:30:00,71.5,61.2,30.19,West,263,0.0,4.0,70,0.00,,OVC038,0.00,VWS V14.01,2013-09-17 23:30:00,
2013-09-17 19:35:00,71.4,61.9,30.19,WSW,258,0.0,4.0,72,0.00,,OVC040,0.00,VWS V14.01,2013-09-17 23:35:00,
2013-09-17 19:40:00,71.3,61.8,30.19,East,81,0.0,4.0,72,0.00,,OVC040,0.00,VWS V14.01,2013-09-17 23:40:00,
2013-09-17 19:45:00,71.2,61.7,30.19,South,191,0.0,4.0,72,0.00,,OVC040,0.00,VWS V14.01,2013-09-17 23:45:00,
2013-09-17 19:50:00,71.1,61.6,30.19,NW,313,0.0,4.0,72,0.00,,OVC040,0.00,VWS V14.01,2013-09-17 23:50:00,
2013-09-17 19:55:00,71.0,61.5,30.19,North,11,0.0,4.0,72,0.00,,OVC040,0.00,VWS V14.01,2013-09-17 23:55:00,
2013-09-17 20:00:00,70.9,61.4,30.19,SW,221,0.0,0.0,72,0.00,,OVC040,0.00,VWS V14.01,2013-09-18 00:00:00,
2013-09-17 20:05:00,70.7,61.6,30.19,ENE,63,0.0,5.0,73,0.00,,OVC110,0.00,VWS V14.01,2013-09-18 00:05:00,
2013-09-17 20:10:00,70.6,61.9,30.19,SE,141,1.0,5.0,74,0.00,,OVC110,0.00,VWS V14.01,2013-09-18 00:10:00,
2013-09-17 20:15:00,70.4,61.7,30.19,ENE,59,0.0,5.0,74,0.00,,OVC110,0.00,VWS V14.01,2013-09-18 00:15:00,
2013-09-17 20:20:00,70.2,61.5,30.20,ENE,78,0.0,5.0,74,0.00,,OVC110,0.00,VWS V14.01,2013-09-18 00:20:00,
2013-09-17 20:25:00,70.1,62.2,30.20,SE,131,0.0,5.0,76,0.00,,OVC110,0.00,VWS V14.01,2013-09-18 00:25:00,
2013-09-17 20:30:00,70.0,61.7,30.20,SE,131,0.0,0.0,75,0.00,,OVC110,0.00,VWS V14.01,2013-09-18 00:30:00,
2013-09-17 20:35:00,69.8,61.9,30.20,South,172,0.0,0.0,76,0.00,,OVC110,0.00,VWS V14.01,2013-09-18 00:35:00,
2013-09-17 20:40:00,69.7,61.4,30.20,SE,135,0.0,2.0,75,0.00,,OVC110,0.00,VWS V14.01,2013-09-18 00:40:00,
2013-09-17 20:45:00,69.5,61.6,30.20,North,11,5.0,5.0,76,0.00,,OVC110,0.00,VWS V14.01,2013-09-18 00:45:00,
2013-09-17 20:50:00,69.3,61.4,30.20,NNE,18,0.0,5.0,76,0.00,,OVC110,0.00,VWS V14.01,2013-09-18 00:50:00,
2013-09-17 20:55:00,69.2,61.7,30.21,ESE,107,0.0,5.0,77,0.00,,OVC110,0.00,VWS V14.01,2013-09-18 00:55:00,
2013-09-17 21:00:00,69.1,61.6,30.21,ESE,107,0.0,5.0,77,0.00,,OVC110,0.00,VWS V14.01,2013-09-18 01:00:00,
2013-09-17 21:01:00,69.0,61.5,30.21,ESE,107,0.0,0.0,77,0.00,,,0.00,VWS V14.01,2013-09-18 01:01:00,
2013-09-17 21:06:00,68.8,61.7,30.21,SSW,192,0.0,2.0,78,0.00,,OVC110,0.00,VWS V14.01,2013-09-18 01:06:00,
2013-09-17 21:11:00,68.7,61.6,30.21,WNW,300,3.0,3.0,78,0.00,,OVC110,0.00,VWS V14.01,2013-09-18 01:11:00,
2013-09-17 21:16:00,68.5,61.4,30.22,East,97,0.0,3.0,78,0.00,,OVC110,0.00,VWS V14.01,2013-09-18 01:16:00,
2013-09-17 21:22:00,68.4,61.6,30.22,East,100,0.0,3.0,79,0.00,,OVC110,0.00,VWS V14.01,2013-09-18 01:22:00,
2013-09-17 21:27:00,68.3,61.5,30.22,SW,225,0.0,3.0,79,0.00,,OVC110,0.00,VWS V14.01,2013-09-18 01:27:00,
2013-09-17 21:30:00,68.3,61.5,30.22,SW,225,0.0,3.0,79,0.00,,CLR,0.00,VWS V14.01,2013-09-18 01:30:00,
2013-09-17 21:32:00,68.3,61.5,30.22,SW,225,0.0,0.0,79,0.00,,OVC110,0.00,VWS V14.01,2013-09-18 01:32:00,
2013-09-17 21:37:00,68.2,61.5,30.23,WNW,284,0.0,0.0,79,0.00,,OVC043,0.00,VWS V14.01,2013-09-18 01:37:00,
2013-09-17 21:42:00,68.1,61.7,30.22,West,267,0.0,1.0,80,0.00,,OVC043,0.00,VWS V14.01,2013-09-18 01:42:00,
2013-09-17 21:47:00,68.0,61.6,30.23,West,267,0.0,1.0,80,0.00,,OVC043,0.00,VWS V14.01,2013-09-18 01:47:00,
2013-09-17 21:52:00,67.9,61.9,30.23,West,267,0.0,1.0,81,0.00,,OVC043,0.00,VWS V14.01,2013-09-18 01:52:00,
2013-09-17 21:57:00,67.9,61.9,30.23,West,267,0.0,1.0,81,0.00,,OVC043,0.00,VWS V14.01,2013-09-18 01:57:00,
2013-09-17 22:00:00,67.9,61.9,30.23,West,267,0.0,1.0,81,0.00,,CLR,0.00,VWS V14.01,2013-09-18 02:00:00,
2013-09-17 22:02:00,67.9,61.9,30.23,West,267,0.0,0.0,81,0.00,,OVC043,0.00,VWS V14.01,2013-09-18 02:02:00,
2013-09-17 22:07:00,67.8,61.8,30.23,West,267,0.0,1.0,81,0.00,,OVC043,0.00,VWS V14.01,2013-09-18 02:07:00,
2013-09-17 22:12:00,67.8,61.8,30.23,West,267,0.0,1.0,81,0.00,,OVC043,0.00,VWS V14.01,2013-09-18 02:12:00,
2013-09-17 22:17:00,67.7,61.7,30.23,South,182,0.0,1.0,81,0.00,,OVC043,0.00,VWS V14.01,2013-09-18 02:17:00,
2013-09-17 22:22:00,67.6,61.6,30.23,South,182,0.0,1.0,81,0.00,,OVC043,0.00,VWS V14.01,2013-09-18 02:22:00,
2013-09-17 22:27:00,67.5,61.5,30.23,South,182,0.0,2.0,81,0.00,,OVC043,0.00,VWS V14.01,2013-09-18 02:27:00,
2013-09-17 22:30:00,67.5,61.8,30.23,South,182,0.0,2.0,82,0.00,,CLR,0.00,VWS V14.01,2013-09-18 02:30:00,
2013-09-17 22:32:00,67.5,61.8,30.23,South,182,0.0,1.0,82,0.00,,OVC043,0.00,VWS V14.01,2013-09-18 02:32:00,
2013-09-17 22:37:00,67.6,61.6,30.23,North,11,0.0,2.0,81,0.00,,OVC043,0.00,VWS V14.01,2013-09-18 02:37:00,
2013-09-17 22:42:00,67.6,61.6,30.23,North,11,0.0,2.0,81,0.00,,OVC043,0.00,VWS V14.01,2013-09-18 02:42:00,
2013-09-17 22:47:00,67.6,61.6,30.23,NE,44,0.0,2.0,81,0.00,,OVC043,0.00,VWS V14.01,2013-09-18 02:47:00,
2013-09-17 22:52:00,67.6,61.9,30.23,NE,44,0.0,2.0,82,0.00,,OVC043,0.00,VWS V14.01,2013-09-18 02:52:00,
2013-09-17 22:56:00,67.6,61.6,30.23,North,11,0.0,2.0,81,0.00,,OVC043,0.00,VWS V14.01,2013-09-18 02:56:00,
2013-09-17 23:00:00,67.6,61.9,30.23,North,11,0.0,2.0,82,0.00,,CLR,0.00,VWS V14.01,2013-09-18 03:00:00,
2013-09-17 23:01:00,67.6,61.6,30.23,NNE,16,0.0,1.0,81,0.00,,OVC043,0.00,VWS V14.01,2013-09-18 03:01:00,
2013-09-17 23:06:00,67.6,61.6,30.24,NE,36,0.0,2.0,81,0.00,,OVC043,0.00,VWS V14.01,2013-09-18 03:06:00,
2013-09-17 23:11:00,67.6,61.6,30.24,NNE,32,0.0,3.0,81,0.00,,OVC043,0.00,VWS V14.01,2013-09-18 03:11:00,
2013-09-17 23:16:00,67.6,61.6,30.24,NNE,15,0.0,3.0,81,0.00,,OVC043,0.00,VWS V14.01,2013-09-18 03:16:00,
2013-09-17 23:21:00,67.6,61.6,30.24,ENE,57,0.0,3.0,81,0.00,,OVC043,0.00,VWS V14.01,2013-09-18 03:21:00,
2013-09-17 23:26:00,67.6,61.6,30.24,ESE,114,1.0,3.0,81,0.00,,OVC043,0.00,VWS V14.01,2013-09-18 03:26:00,
2013-09-17 23:30:00,67.6,61.6,30.23,ESE,114,0.0,3.0,81,0.00,,CLR,0.00,VWS V14.01,2013-09-18 03:30:00,
2013-09-17 23:31:00,67.6,61.9,30.23,NNE,31,0.0,2.0,82,0.00,,OVC043,0.00,VWS V14.01,2013-09-18 03:31:00,
2013-09-17 23:36:00,67.5,61.5,30.23,NNE,31,0.0,2.0,81,0.00,,OVC037,0.00,VWS V14.01,2013-09-18 03:36:00,
2013-09-17 23:41:00,67.5,61.5,30.23,East,98,0.0,3.0,81,0.00,,OVC037,0.00,VWS V14.01,2013-09-18 03:41:00,
2013-09-17 23:46:00,67.4,61.4,30.23,ENE,64,0.0,3.0,81,0.00,,OVC037,0.00,VWS V14.01,2013-09-18 03:46:00,
2013-09-17 23:51:00,67.4,61.4,30.23,NNW,332,0.0,3.0,81,0.00,,OVC037,0.00,VWS V14.01,2013-09-18 03:51:00,
2013-09-17 23:56:00,67.4,61.7,30.23,NE,48,0.0,3.0,82,0.00,,OVC037,0.00,VWS V14.01,2013-09-18 03:56:00,